STARLINK-5764, 55602

Orbit data source: Space-Track

STARLINK-5764, 55602 is a payload satellite owned by SpaceX/Seattle (US) in LEO that was launched on Sun, 12 Feb 2023 UTC via an FALCON 9 launch vehicle from the Air Force Eastern Test Range (AFETR). Payload-class satellites include a variety of spacecraft equipped with specific instruments for various scientific and technological missions. These include communications satellites like Starlink; space stations such as the ISS; scientific satellites like the Hubble; Earth observation satellites from companies like Planet Labs, Umbra, and HawkEye 360; GPS; miniature CubeSats for education and research; and military/defense satellites.

Loading next visibility...
Identifier
55602, 2023-020AK
Orbit
LEO
Country
Flag of USUS
Related business
Manufacturer
SpaceX/Seattle
Mission
Operational spacecraft
Bus & Motor
STARLINK, Unknown motor
Mass
305 kg wet, ~290 kg dry
Launch date (UTC)
2023-02-12 (3 years ago)
Launch vehicle
FALCON 9
Launch site
Air Force Eastern Test Range (AFETR)
Object type
Payload
Rocket body
Debris
Shape & HBR
Unknown shape, 10.1 m
Radar Cross Section
Large (>1 m²)

Expand to show TLE details & history
Last TLE update: 18 hours ago

TLE from 18 hours ago
0 STARLINK-5764
1 55602U 23020AK  26061.63716379  .00000832  00000-0  76667-4 0  9991
2 55602  43.0041  30.3780 0001091 269.2398  90.8319 15.02538608168006
Epoch: 2026-03-02T15:17Z
TLE epoch observation values (Epoch: 2026-03-02T15:17:30.951Z)
Latitude
-0.00004°
Longitude
0.57127°
Altitude
558.861 km
Speed
7.584 km/s
True Right ascension
02h 01m 30s
True Declination
0° 00' 00"
Sunlit
Object was in daylight at epoch
Visualization orbit readout
Latitude
Unknown
Longitude
Unknown
Altitude
Unknown
Speed
Unknown
Apparent Right ascension
Unknown
Apparent Declination
Unknown
Sunlit
N/A
Visualization observer readout
Local Sidereal Time
13:10:25
Azimuth
Unknown
Elevation
Unknown
Doppler factor
Unknown
Orbital elements
Apogee altitude
561.752 km
Perigee altitude
560.238 km
Semi-major axis
6,939.132 km
Eccentricity
0.00011
Inclination
43.0041°
RAAN
30.378°
Arg. of periapsis
269.2398°
True anomaly
90.8444°
Mean anomaly
90.8319°
Eccentric anomaly
90.83815°
Mean motion
3.75479 °/min
Orbital period
95.88 mins
BSTAR
0.000076667
Loading maneuver chart data...
Computing Atmospheric mass density...
Loading historical data...
Loading historical data...
Loading historical data...
Loading historical data...
Loading historical data...
Loading historical data...
Loading historical data...

Documentation

Showing up to 5 results
|